Weather History for KTQE - September, 2012

Change the Weather History Date:

Friday, September 14, 2012

  Actual Average Record
Temperature  
Mean Temperature 65 °F -  
Max Temperature 84 °F 77 °F 94 °F (1981)
Min Temperature 46 °F 52 °F 37 °F (2007)
Growing Degree Days 15 (Base 50)    
Moisture  
Dew Point 42 °F    
Average Humidity 52    
Maximum Humidity 86    
Minimum Humidity 18    
Precipitation  
Precipitation 0.00 in - - ()
Sea Level Pressure  
Sea Level Pressure 30.28 in    
Wind  
Wind Speed 9 mph (South)    
Max Wind Speed 16 mph    
Max Gust Speed 24 mph    
Visibility 10 miles    
Events      
Averages and records for this station are not official NWS values.
T = Trace of Precipitation, MM = Missing Value Source: NWS Daily Summary

Daily Weather History Graph

Daily Weather History Graph

Search for Another Location

Airport or City:

Trip Planner

Search our weather history database for the weather conditions in past years. The results will help you decide how hot, cold, wet, or windy it might be!

Date:

Astronomy

Sep. 14, 2012 Rise Set
Actual Time 7:04 AM CDT 7:34 PM CDT
Civil Twilight 6:36 AM CDT 8:02 PM CDT
Nautical Twilight 6:03 AM CDT 8:35 PM CDT
Astronomical Twilight 5:29 AM CDT 9:09 PM CDT
Moon 5:29 AM CDT (9/14) 6:32 PM CDT (9/14)
Length of Visible Light 13h 26m
Length of Day
12h 30m
Waning Crescent, 2% of the Moon is Illuminated
Sep 14
Waning Crescent
Sep 15
New
Sep 22
First Quarter
Sep 29
Full
Oct 8
Last Quarter

Hourly Weather History & Observations

Time (CDT) Temp. Dew Point Humidity Pressure Visibility Wind Dir Wind Speed Gust Speed Precip Events Conditions
12:54 AM 54.0 °F 48.0 °F 80% 30.35 in 10.0 mi South 8.1 mph - N/A   Clear
1:54 AM 51.1 °F 46.0 °F 83% 30.35 in 10.0 mi South 5.8 mph - N/A   Clear
2:54 AM 50.0 °F 46.0 °F 86% 30.34 in 9.0 mi SSE 6.9 mph - N/A   Clear
3:54 AM 50.0 °F 45.0 °F 83% 30.33 in 9.0 mi South 6.9 mph - N/A   Clear
4:54 AM 50.0 °F 45.0 °F 83% 30.32 in 10.0 mi South 5.8 mph - N/A   Clear
5:54 AM 48.9 °F 45.0 °F 86% 30.33 in 9.0 mi South 5.8 mph - N/A   Clear
6:54 AM 46.9 °F 43.0 °F 86% 30.33 in 8.0 mi South 6.9 mph - N/A   Clear
7:54 AM 50.0 °F 46.0 °F 86% 30.34 in 7.0 mi South 5.8 mph - N/A   Clear
8:54 AM 57.9 °F 46.0 °F 65% 30.33 in 10.0 mi SW 8.1 mph - N/A   Clear
9:54 AM 66.0 °F 45.0 °F 47% 30.32 in 10.0 mi SW 6.9 mph - N/A   Clear
10:54 AM 72.0 °F 39.9 °F 31% 30.32 in 10.0 mi SW 6.9 mph - N/A   Clear
11:54 AM 77.0 °F 36.0 °F 23% 30.30 in 10.0 mi SW 13.8 mph 21.9 mph N/A   Clear
12:54 PM 80.1 °F 33.1 °F 18% 30.29 in 10.0 mi SW 15.0 mph 24.2 mph N/A   Clear
1:54 PM 82.0 °F 35.1 °F 18% 30.27 in 10.0 mi SSW 10.4 mph 23.0 mph N/A   Clear
2:54 PM 82.9 °F 35.1 °F 18% 30.25 in 10.0 mi South 9.2 mph 20.7 mph N/A   Clear
3:54 PM 84.0 °F 36.0 °F 18% 30.22 in 10.0 mi SSW 15.0 mph 19.6 mph N/A   Clear
4:54 PM 82.9 °F 36.0 °F 19% 30.22 in 10.0 mi South 13.8 mph 24.2 mph N/A   Clear
5:54 PM 82.0 °F 37.9 °F 21% 30.21 in 10.0 mi South 16.1 mph - N/A   Clear
6:54 PM 77.0 °F 41.0 °F 28% 30.21 in 10.0 mi South 12.7 mph - N/A   Clear
7:54 PM 68.0 °F 45.0 °F 43% 30.22 in 10.0 mi SSE 9.2 mph - N/A   Clear
8:54 PM 62.1 °F 46.0 °F 56% 30.23 in 10.0 mi SSE 9.2 mph - N/A   Clear
9:54 PM 60.1 °F 45.0 °F 57% 30.24 in 10.0 mi SSE 8.1 mph - N/A   Clear
10:54 PM 62.1 °F 45.0 °F 53% 30.25 in 10.0 mi South 10.4 mph - N/A   Clear
11:54 PM 60.1 °F 45.0 °F 57% 30.25 in 10.0 mi South 10.4 mph - N/A   Clear